Regional Weather Roundup
Issued by NWS

Home | Current Version | Previous Version | Text Only | Print | Product List | Glossary On
Versions: 1 2 3 4 5 6 7 8 9 10 11 12 13 14 15 16 17 18 19 20 21 22 23 24 25 26 27 28 29 30 31 32 33 34 35 36 37 38 39 40 41 42 43 44 45 46 47 48 49 50
000
ASUS43 KDTX 241910
RWRMI
MICHIGAN HOURLY REGIONAL WEATHER ROUNDUP
NATIONAL WEATHER SERVICE DETROIT/PONTIAC MI
ISSUED BY NATIONAL WEATHER SERVICE GRAND RAPIDS MI
300 PM EDT WED MAY 24 2017

NOTE: "FAIR" INDICATES FEW OR NO CLOUDS BELOW 12,000 FEET WITH NO
SIGNIFICANT WEATHER AND/OR OBSTRUCTION TO VISIBILITY.

MIZ047>049-052>055-059>063-066>070-074>076-081>083-242000-
SOUTHEAST LOWER MICHIGAN

CITY           SKY/WX    TMP DP  RH WIND       PRES   REMARKS
ADRIAN         LGT RAIN  60  58  92 E14G21    29.54F
ALMA           PTSUNNY   64  56  73 NE13G21   29.58F
ANN ARBOR      LGT RAIN  62  59  90 E8        29.55F
BAD AXE        PTSUNNY   67  55  66 E10       29.63S
DETROIT CITY   CLOUDY    63  59  87 E12       29.57F
DETROIT        LGT RAIN  64  59  83 E8        29.56F
FLINT          CLOUDY    70  53  54 E16       29.56F
GROSSE ILE     CLOUDY    63  59  86 E7        29.55S
HILLSDALE      CLOUDY    63  55  77 E17       29.53R
HOWELL         CLOUDY    65  54  68 SE12      29.55F

CITY           SKY/WX    TMP DP  RH WIND       PRES   REMARKS
JACKSON        CLOUDY    65  55  70 E14G22    29.54R
LANSING        CLOUDY    65  55  70 NE13      29.55F
MASON          CLOUDY    65  57  75 E14G22    29.55F
MONROE         CLOUDY    62  57  86 E9        29.54F
MT. CLEMENS    CLOUDY    64  59  82 E9        29.56F
PONTIAC        CLOUDY    65  52  62 E13       29.55F
PORT HOPE        N/A     53  50  89 NE10      29.64S
PORT HURON     CLOUDY    64  55  72 E10       29.59F
TRI CITIES     CLOUDY    60  54  80 NE21G28   29.60F
YPSILANTI      CLOUDY    65  60  84 E9        29.56F
$$
MIZ043>046-050>051-056>058-064>065-071>073-077>080-242000-
SOUTHWEST LOWER MICHIGAN

CITY           SKY/WX    TMP DP  RH WIND       PRES   REMARKS
BATTLE CREEK   CLOUDY    69  58  67 E9        29.52F
BENTON HARBOR  CLOUDY    63  53  70 N8        29.49F
BIG RAPIDS     CLOUDY    67  52  58 E8G17     29.58F
COLDWATER      CLOUDY    62  59  89 N8        29.50S
HOLLAND        CLOUDY    69  55  60 E13G18    29.53F
GRAND RAPIDS   PTSUNNY   69  57  65 NE14      29.54F
KALAMAZOO      MOSUNNY   70  54  56 E8        29.51F
MARSHALL       CLOUDY    68  56  65 E6        29.52S
MOUNT PLEASANT CLOUDY    67  54  61 NE13G20   29.58F
MUSKEGON       PTSUNNY   67  52  58 NE15G22   29.56S
STURGIS        CLOUDY    68  57  67 E9G16     29.49S
$$
MIZ016>042-242000-
NORTHERN LOWER MICHIGAN

CITY           SKY/WX    TMP DP  RH WIND       PRES   REMARKS
ALPENA         CLOUDY    59  52  77 NE8       29.72R
BEAVER ISLAND  CLOUDY    53  50  90 E13G20    29.72S
BELLAIRE       CLOUDY    65  50  57 NE12      29.67R
CADILLAC       CLOUDY    63  54  72 NE8       29.63S
CHARLEVOIX     PTSUNNY   61  55  79 NE9       29.71S
GAYLORD        MOSUNNY   59  51  75 E8        29.69S
HOUGHTON LAKE  CLOUDY    60  52  74 NE13      29.65S
MANISTEE       CLOUDY    57  54  89 NW6       29.63F
OSCODA         CLOUDY    60  50  69 NE15G23   29.67S
PELLSTON       CLOUDY    55  50  83 NE9       29.73R
TRAVERSE CITY  CLOUDY    61  54  77 N6        29.64F
LUDINGTON      CLOUDY    56  55  96 N8        29.62S
$$
MIZ007>008-015-242000-
EASTERN UPPER MICHIGAN

CITY           SKY/WX    TMP DP  RH WIND       PRES   REMARKS
KINROSS        CLOUDY    54  51  90 NE9       29.74F
MACKINAC ISLAN CLOUDY    53  53 100 E8        29.73S
NEWBERRY       CLOUDY    56  51  85 NE10      29.72F
S. S. MARIE    CLOUDY    57  51  80 VRB3      29.74S
$$
MIZ004>006-011>014-085-242000-
CENTRAL UPPER MICHIGAN

CITY           SKY/WX    TMP DP  RH WIND       PRES   REMARKS
MANISTIQUE     CLOUDY    56  50  82 E5        29.72S
ESCANABA       CLOUDY    54  50  86 E7        29.73R
MENOMINEE      CLOUDY    51  49  92 NE13      29.72S
SAWYER-GWINN   CLOUDY    48  45  87 NE13      29.76S
$$
MIZ001>003-009>011-084-242000-
WESTERN UPPER MICHIGAN

CITY           SKY/WX    TMP DP  RH WIND       PRES   REMARKS
IRON MOUNTAIN  CLOUDY    55  47  74 NE6       29.72S
HOUGHTON       CLOUDY    54  44  69 E8        29.78F
COPPER HARBOR    N/A     44  40  85 NE3       29.80F
$$

ABBREVIATIONS USED IN REMARKS
   TC - TEMPERATURE IN CELSIUS
  WCI - WIND CHILL INDEX
   HX - HEAT INDEX
  VSB - VISIBILITY





USA.gov is the U.S. government's official web portal to all federal, state and local government web resources and services.